Location: Gradaro
(45.0833°N, 10.8833°E)
Time: 20:41:31
(UTC+00:00)

Lacrosse 5 - Pass Details

Date: 29 November 2020
Orbit: 713 x 726 km, 57.0° (Epoch: 18 January)

Event Time Altitude Azimuth Distance (km) Brightness Sun altitude
Exits shadow 04:32:07 46° 263° (W) 957 2.0 -20.7°
Maximum altitude 04:33:27 65° 323° (NW) 785 1.8 -20.5°
Drops below altitude 10° 04:38:29 10° 46° (NE) 2,197 4.8 -19.6°
Sets 04:40:53 0° 49° (NE) 3,120 5.7 -19.2°
